Simultaneous Nadir Overpasses (SNOs) Predictions

Prediction of SNOs between GOES-16 and AQUA Satellite Orbit:

Table of predicted SNOs for the next 14.0 days since TLE Epoch: 11/19/2022
Index Date Time (GOES-16) GOES-16 Lat,Lon AQUA Lat,Lon Distance(km) Time Diff (sec)
1 11/19/2022 06:27:45 0.01, -75.19 -0.83, -71.19 453.91 80
2 11/19/2022 18:46:18 -0.01, -75.20 -0.24, -76.34 130.14 80
3 11/21/2022 18:36:04 -0.01, -75.21 0.42, -73.20 228.25 80
4 11/22/2022 06:54:28 0.00, -75.20 0.68, -78.30 352.76 80
5 11/24/2022 06:41:34 0.01, -75.21 -0.00, -75.16 5.83 80
6 11/26/2022 06:28:40 0.01, -75.22 -0.70, -72.02 364.49 80
7 11/26/2022 18:49:53 -0.01, -75.23 -0.40, -77.16 219.58 80
8 11/28/2022 18:39:38 -0.01, -75.25 0.26, -74.02 139.75 80
9 11/29/2022 07:00:42 0.01, -75.25 0.83, -79.12 440.61 80
10 12/01/2022 06:47:47 0.00, -75.27 0.14, -75.98 80.05 80
